Location: Unspecified
(0.0000°N, 0.0000°E)
Time: 14:05:33
(UTC+00:00)

Tiros 1 - All Passes

Search period start: 21 February 2019 00:00
Search period end: 03 March 2019 00:00
Orbit: 630 x 664 km, 48.4° (Epoch: 21 February)

Date Brightness Start Highest point End Pass type
(mag) Time Alt. Az. Time Alt. Az. Time Alt. Az.
21 Feb - 05:20:47 10° N 05:24:52 27° NE 05:28:55 10° ESE visible
21 Feb - 07:03:03 10° WNW 07:06:54 24° SW 07:10:44 10° S daylight
21 Feb - 17:33:24 10° SSW 17:37:52 48° SE 17:42:19 10° NE daylight
21 Feb - 19:17:52 10° WNW 19:19:55 13° NW 19:21:59 10° NNW visible
22 Feb - 05:46:05 10° NW 05:50:53 89° WSW 05:55:41 10° SE visible
22 Feb - 16:19:42 10° SSE 16:21:50 13° SE 16:23:57 10° ESE daylight
22 Feb - 17:59:26 10° SW 18:03:53 47° NW 18:08:19 10° NNE daylight
23 Feb - 04:31:00 10° N 04:34:54 24° NE 04:38:46 10° ESE visible
23 Feb - 06:12:53 10° WNW 06:16:56 27° SW 06:20:58 10° S daylight
23 Feb - 16:43:34 10° SSW 16:47:55 42° SE 16:52:17 10° ENE daylight
23 Feb - 18:27:27 10° W 18:29:57 14° NW 18:32:29 10° NNW daylight
24 Feb - 04:56:08 10° NW 05:00:56 81° NE 05:05:44 10° SE visible
24 Feb - 15:30:23 10° SSE 15:31:53 11° SE 15:33:22 10° ESE daylight
24 Feb - 17:09:27 10° SW 17:13:57 54° NW 17:18:27 10° NNE daylight
25 Feb - 03:41:15 10° N 03:44:55 22° NE 03:48:36 10° E visible
25 Feb - 05:22:46 10° WNW 05:26:58 30° SW 05:31:10 10° S visible
25 Feb - 15:53:44 10° SSW 15:58:00 37° SE 16:02:14 10° ENE daylight
25 Feb - 17:37:08 10° W 17:40:01 16° NW 17:42:54 10° N daylight
26 Feb - 04:06:12 10° NNW 04:10:59 71° NE 04:15:46 10° SE visible
26 Feb - 16:19:28 10° SW 16:24:00 61° NW 16:28:34 10° NNE daylight
27 Feb - 02:51:32 10° N 02:54:57 19° NE 02:58:24 10° E visible
27 Feb - 04:32:40 10° WNW 04:37:01 34° SW 04:41:21 10° SSE visible
27 Feb - 15:03:54 10° SSW 15:08:04 33° SE 15:12:11 10° ENE daylight
27 Feb - 16:46:54 10° W 16:50:04 18° NW 16:53:15 10° N daylight
28 Feb - 03:16:17 10° NNW 03:21:01 62° NE 03:25:46 10° SE visible
28 Feb - 05:02:00 10° WSW 05:03:09 11° SW 05:04:17 10° SW visible
28 Feb - 15:29:29 10° SW 15:34:04 70° NW 15:38:39 10° NNE daylight
01 Mar - 02:01:52 10° N 02:04:59 17° NE 02:08:08 10° E night (unlit)
01 Mar - 03:42:35 10° WNW 03:47:03 38° SW 03:51:32 10° SSE visible
01 Mar - 14:14:07 10° S 14:18:07 29° SE 14:22:06 10° ENE daylight
01 Mar - 15:56:41 10° W 16:00:07 21° NW 16:03:33 10° N daylight
02 Mar - 02:26:23 10° NNW 02:31:04 55° NE 02:35:46 10° SE night (unlit)
02 Mar - 04:11:13 10° WSW 04:13:10 12° SW 04:15:07 10° SSW visible
02 Mar - 14:39:31 10° SW 14:44:09 80° NW 14:48:44 10° NE daylight
